Regional Weather Roundup
Issued by NWS Green Bay, WI

Home | Current Version | Previous Version | Graphics & Text | Print | Product List | Glossary Off
Versions: 1 2 3 4 5 6 7 8 9 10 11 12 13 14 15 16 17 18 19 20 21 22 23 24 25 26 27 28 29 30 31 32 33 34 35 36 37 38 39 40 41 42 43 44 45 46 47 48 49 50

363
ASUS43 KGRB 070300
RWRGRB

NORTH-CENTRAL AND NORTHEAST WISCONSIN REGIONAL WEATHER ROUNDUP
NATIONAL WEATHER SERVICE GREEN BAY WI
900 PM CST TUE DEC 06 2016

WIZ005-009-010>012-018-019-070400-
NORTH CENTRAL WISCONSIN

CITY           SKY/WX    TMP DP  RH WIND       PRES   REMARKS
IRONWOOD       FLURRIES  21  16  81 SW15      29.57S WCI   8
MANITOWISH WTR NOT AVBL
ARBOR VITAE    NOT AVBL
EAGLE RIVER    NOT AVBL
LAND O LAKES   NOT AVBL
RHINELANDER    CLOUDY    21  16  81 SW16G26   29.63S WCI   7
PHILLIPS       FLURRIES  20  15  82 SW15G22   29.63R WCI   6
ANTIGO         NOT AVBL
TOMAHAWK       NOT AVBL
MERRILL        NOT AVBL
$$

WIZ013-073-070400-
NORTHEAST WISCONSIN

CITY           SKY/WX    TMP DP  RH WIND       PRES   REMARKS
IRON MOUNTAIN  CLOUDY    23  14  68 SW15G26   29.64R
MARINETTE      NOT AVBL
$$

WIZ017-030-035>037-045-070400-
CENTRAL WISCONSIN

CITY           SKY/WX    TMP DP  RH WIND       PRES   REMARKS
MEDFORD        NOT AVBL
WAUSAU         CLOUDY    22  16  78 W17G26    29.72R WCI   8
MOSINEE        CLOUDY    21  18  86 SW20G26   29.74R WCI   6
MARSHFIELD     FLURRIES  22  15  75 W20G26    29.73R WCI   7
WISC RAPIDS    CLOUDY    24  16  71 W13       29.78S
STEVENS POINT  NOT AVBL
WAUPACA        NOT AVBL
SHAWANO        NOT AVBL
CLINTONVILLE   NOT AVBL
WAUTOMA        CLOUDY    25  17  72 SW16G24   29.80S
$$

WIZ038-039-048-051-070400-
FOX VALLEY

CITY           SKY/WX    TMP DP  RH WIND       PRES   REMARKS
NWS GREEN BAY  CLOUDY    28  20  71 SW14      29.78R
APPLETON       CLOUDY    27  16  63 SW18G25   29.77R
OSHKOSH        CLOUDY    26  17  68 SW9G20    29.80R
FOND DU LAC    CLOUDY    27  16  63 W9G20     29.83R
$$

WIZ022-050-052-070400-
EAST CENTRAL WISCONSIN

CITY           SKY/WX    TMP DP  RH WIND       PRES   REMARKS
EPHRAIM        NOT AVBL
WASHINGTON ISL NOT AVBL
STURGEON BAY   CLOUDY    26  18  71 W16G26    29.74R
MANITOWOC      NOT AVBL
SHEBOYGAN      CLOUDY    27  17  66 W23G29    29.82R
$$

LMZ563-521-522-541>543-070400-
LAKESHORE

STATION/POSITION TIME  TEMP    WIND        PRES    VSBY  WAVE
                       AIR SEA DIR/SP/G                  HT/PER
                 (UTC) (F)     (DEG/KT/KT) (MB)    (MI)  (FT/S)
$$




USA.gov is the U.S. government's official web portal to all federal, state and local government web resources and services.